View from above orbital plane
|
View from above satellite
|
Ground track
|
The orbit data is extracted from the following two-line orbital elements,
1 27640U 03001A 21061.69114133 -.00000017 00000-0 12963-4 0 9995
2 27640 98.7253 73.1411 0014460 18.7627 44.8990 14.19062587940064
Epoch (UTC): | 02 March 2021 16:35:14 |
Eccentricity: | 0.0014460 |
inclination: | 98.7253° |
perigee height: | 818 km |
apogee height: | 839 km |
right ascension of ascending node: | 73.1411° |
argument of perigee: | 18.7627° |
revolutions per day: | 14.19062587 |
mean anomaly at epoch: | 44.8990° |
orbit number at epoch: | 94006 |
The dashed part of the orbit path shows where the satellite is in the earth's shadow,
|
|